sat.trackr.live / text

‹ back to catalog

STARLINK-32761

NORAD 62749 · 2025-014Q

PAYLOAD ACTIVE UNKNOWN

§ Identity

Operator
Country
US
Launch date
2025-01-21
Launch site
AFETR
Launch vehicle
Mass (kg)
RCS (m²)

Purposes: comms

External: N2YO · Heavens-Above · Gunter

§ Orbital elements

Epoch: 2026-05-25T03:42:55.001664Z

Period
94.27 min
Inclination
43.0031°
Eccentricity
0.0001324
Mean motion
15.27593810 rev/d
Perigee alt
482.1 km
Apogee alt
483.9 km
Semi-major
6,861.1 km
B*
6.4158e-4
RAAN
85.8502°
Arg perigee
260.5890°
Mean anomaly
99.4812°
Rev number
7,491

§ Raw data

STARLINK-327611 62749U 25014Q   26145.15480326  .00017442  00000+0  64158-3 0  99912 62749  43.0031  85.8502 0001324 260.5890  99.4812 15.27593810 74914

JSON: /api/v1/satellites/62749 · /tle

For live sub-satellite position, see the globe view (requires WebGL).

§ Visibility from observer

Set your observer location to see the next 7 days of passes ≥ 10°. The values pass through the URL so the page stays shareable.

No JS? Fill the form by hand. The geolocation button needs JavaScript.